20040405,000019,1123209,33.536750,-122.390920,NaN,15.822,33.005,41.492,964.79,0.0, NaN,14.444,14.414, NaN,24.253,   NaN,13.01,1016.94,77.46,12.74,50.4,47.7,7.0,5.5,344.8,355.4,5.9,4.7,NaN, NaN,NaN,246.5,NaN,1081123221,NaN,NaN,9.4,000020,   NaN,248.7,33.536730,-122.390810,0.01,NaN,NaN,15.826, NaN,NaN,NaN, NaN, NaN
20040405,000049,1123238,33.536130,-122.392390,NaN,15.834,33.000,41.498,1056.57,0.0, NaN,14.457,14.429, NaN,24.247,   NaN,12.92,1017.00,77.18,12.68,51.5,49.0,7.3,5.7,343.7,354.8,6.2,4.9,NaN, NaN,NaN,247.9,NaN,1081123251,NaN,NaN,9.1,000050,   NaN,248.6,33.536120,-122.392280,-0.22,NaN,NaN,15.838, NaN,NaN,NaN, NaN, NaN
20040405,000119,1123269,33.535530,-122.393870,NaN,15.845,32.996,41.503,1018.85,0.0, NaN,14.471,14.441, NaN,24.241,   NaN,13.00,1017.03,77.86,12.72,53.6,51.8,7.0,5.2,347.0,0.7,6.2,4.9,NaN, NaN,NaN,242.3,NaN,1081123281,NaN,NaN,10.1,000080,   NaN,247.8,33.535520,-122.393770,-0.17,NaN,NaN,15.849, NaN,NaN,NaN, NaN, NaN
20040405,000149,1123299,33.534910,-122.395360,NaN,15.854,32.991,41.507,946.87,0.0, NaN,14.476,14.444, NaN,24.236,   NaN,13.00,1017.03,77.55,12.73,54.4,54.1,6.7,4.9,350.0,5.6,6.0,4.9,NaN, NaN,NaN,251.5,NaN,1081123311,NaN,NaN,10.6,000110,   NaN,247.9,33.534910,-122.395250,-0.16,NaN,NaN,15.858, NaN,NaN,NaN, NaN, NaN
20040405,000219,1123329,33.534290,-122.396840,NaN,15.858,32.989,41.508,922.30,0.0, NaN,14.472,14.440, NaN,24.233,   NaN,12.95,1016.98,77.22,12.72,53.9,54.1,6.8,5.1,349.0,3.2,6.0,5.1,NaN, NaN,NaN,241.4,NaN,1081123341,NaN,NaN,9.7,000140,   NaN,248.9,33.534290,-122.396720,-0.31,NaN,NaN,15.862, NaN,NaN,NaN, NaN, NaN
20040405,000249,1123359,33.533700,-122.398320,NaN,15.861,32.987,41.509,909.25,0.0, NaN,14.467,14.433, NaN,24.231,   NaN,12.86,1017.13,76.55,12.66,55.7,57.1,6.6,4.8,352.0,8.1,6.0,5.1,NaN, NaN,NaN,236.6,NaN,1081123371,NaN,NaN,9.6,000170,   NaN,249.4,33.533680,-122.398210,-0.10,NaN,NaN,15.865, NaN,NaN,NaN, NaN, NaN
20040405,000319,1123389,33.533080,-122.399800,NaN,15.864,32.986,41.510,916.03,0.0, NaN,14.455,14.421, NaN,24.229,   NaN,12.83,1017.07,76.75,12.62,57.6,59.6,6.0,4.1,358.3,16.7,5.8,5.0,NaN, NaN,NaN,249.3,NaN,1081123401,NaN,NaN,9.6,000200,   NaN,246.9,33.533080,-122.399690,0.14,NaN,NaN,15.868, NaN,NaN,NaN, NaN, NaN
20040405,000349,1123418,33.532480,-122.401290,NaN,15.871,32.984,41.514,979.97,0.0, NaN,14.440,14.406, NaN,24.226,   NaN,12.92,1017.07,77.34,12.66,57.8,59.6,5.5,3.7,1.9,20.8,5.5,4.8,NaN, NaN,NaN,244.5,NaN,1081123431,NaN,NaN,9.1,000230,   NaN,248.1,33.532480,-122.401170,-0.12,NaN,NaN,15.875, NaN,NaN,NaN, NaN, NaN
20040405,000419,1123449,33.531870,-122.402770,NaN,15.881,32.981,41.520,1054.46,0.0, NaN,14.423,14.386, NaN,24.222,   NaN,12.99,1017.05,77.62,12.71,56.6,60.1,5.7,3.7,359.7,21.3,5.5,4.9,NaN, NaN,NaN,250.4,NaN,1081123461,NaN,NaN,10.4,000260,   NaN,248.9,33.531870,-122.402660,-0.01,NaN,NaN,15.885, NaN,NaN,NaN, NaN, NaN
20040405,000449,1123479,33.531280,-122.404270,NaN,15.894,32.979,41.529,1914.78,0.0, NaN,14.403,14.367, NaN,24.217,   NaN,13.04,1017.03,77.74,12.73,54.4,57.4,6.0,4.0,356.0,17.3,5.5,4.8,NaN, NaN,NaN,242.7,NaN,1081123491,NaN,NaN,9.7,000290,   NaN,247.6,33.531280,-122.404150,0.02,NaN,NaN,15.898, NaN,NaN,NaN, NaN, NaN
20040405,000519,1123509,33.530710,-122.405740,NaN,15.904,32.975,41.535,1447.06,0.0, NaN,14.387,14.351, NaN,24.212,   NaN,13.09,1017.01,77.52,12.78,52.2,53.6,6.6,4.7,350.0,7.7,5.6,4.8,NaN, NaN,NaN,231.4,NaN,1081123521,NaN,NaN,11.0,000320,   NaN,248.6,33.530690,-122.405620,-0.05,NaN,NaN,15.908, NaN,NaN,NaN, NaN, NaN
20040405,000549,1123539,33.530110,-122.407200,NaN,15.912,32.973,41.541,1393.24,0.0, NaN,14.376,14.341, NaN,24.209,   NaN,13.02,1017.02,77.08,12.76,53.7,51.6,7.0,5.3,346.7,359.2,6.1,4.9,NaN, NaN,NaN,241.4,NaN,1081123551,NaN,NaN,10.5,000350,   NaN,248.3,33.530090,-122.407090,-0.03,NaN,NaN,15.916, NaN,NaN,NaN, NaN, NaN
20040405,000619,1123569,33.529500,-122.408690,NaN,15.920,32.971,41.545,1352.74,0.0, NaN,14.372,14.338, NaN,24.205,   NaN,12.97,1017.04,77.14,12.73,52.8,51.3,6.9,5.2,347.3,0.5,6.0,4.8,NaN, NaN,NaN,240.1,NaN,1081123581,NaN,NaN,10.4,000380,   NaN,248.3,33.529500,-122.408570,-0.10,NaN,NaN,15.924, NaN,NaN,NaN, NaN, NaN
20040405,000649,1123599,33.528930,-122.410180,NaN,15.917,32.969,41.541,915.18,0.0, NaN,14.368,14.335, NaN,24.204,   NaN,12.98,1017.08,77.35,12.72,54.5,54.7,6.3,4.6,353.0,9.3,5.7,4.8,NaN, NaN,NaN,236.3,NaN,1081123611,NaN,NaN,9.6,000410,   NaN,247.1,33.528930,-122.410060,0.03,NaN,NaN,15.921, NaN,NaN,NaN, NaN, NaN
20040405,000720,1123630,33.528320,-122.411700,NaN,15.912,32.968,41.534,860.41,0.0, NaN,14.362,14.332, NaN,24.204,   NaN,13.00,1017.09,77.55,12.75,53.9,54.9,6.1,4.5,353.7,10.3,5.5,4.7,NaN, NaN,NaN,246.3,NaN,1081123642,NaN,NaN,9.4,000441,   NaN,249.4,33.528370,-122.411650,-0.04,NaN,NaN,15.916, NaN,NaN,NaN, NaN, NaN
20040405,000750,1123659,33.527730,-122.413180,NaN,15.905,32.963,41.523,826.89,0.0, NaN,14.361,14.330, NaN,24.203,   NaN,12.96,1017.05,77.57,12.74,57.4,58.1,6.1,4.1,356.6,15.2,5.7,4.8,NaN, NaN,NaN,246.3,NaN,1081123672,NaN,NaN,9.2,000471,   NaN,247.9,33.527740,-122.413090,-0.02,NaN,NaN,15.909, NaN,NaN,NaN, NaN, NaN
20040405,000819,1123689,33.527170,-122.414620,NaN,15.894,32.966,41.515,801.11,0.0, NaN,14.358,14.326, NaN,24.207,   NaN,13.03,1017.08,78.13,12.76,55.8,53.6,6.2,4.4,354.9,10.3,5.7,4.5,NaN, NaN,NaN,247.7,NaN,1081123701,NaN,NaN,10.1,000500,   NaN,247.1,33.527160,-122.414520,-0.14,NaN,NaN,15.898, NaN,NaN,NaN, NaN, NaN
20040405,000850,1123720,33.526550,-122.416150,NaN,15.882,32.965,41.503,788.26,0.0, NaN,14.353,14.318, NaN,24.209,   NaN,12.98,1017.06,77.73,12.75,53.7,52.5,6.1,4.5,354.6,8.8,5.4,4.5,NaN, NaN,NaN,242.3,NaN,1081123732,NaN,NaN,10.0,000531,   NaN,249.2,33.526540,-122.416040,-0.25,NaN,NaN,15.886, NaN,NaN,NaN, NaN, NaN
20040405,000920,1123750,33.525960,-122.417640,NaN,15.868,32.964,41.489,785.20,0.0, NaN,14.350,14.314, NaN,24.212,   NaN,12.95,1017.07,77.77,12.71,55.5,55.7,6.0,4.3,356.2,12.8,5.5,4.7,NaN, NaN,NaN,245.2,NaN,1081123762,NaN,NaN,10.2,000561,   NaN,247.6,33.525940,-122.417530,0.10,NaN,NaN,15.872, NaN,NaN,NaN, NaN, NaN
20040405,000950,1123780,33.525380,-122.419120,NaN,15.855,32.964,41.477,786.10,0.0, NaN,14.344,14.309, NaN,24.215,   NaN,13.00,1017.07,78.16,12.74,56.6,57.1,6.1,4.3,356.5,13.9,5.7,4.8,NaN, NaN,NaN,233.9,NaN,1081123792,NaN,NaN,9.9,000591,   NaN,247.2,33.525360,-122.419020,-0.14,NaN,NaN,15.859, NaN,NaN,NaN, NaN, NaN
20040405,001019,1123809,33.524800,-122.420540,NaN,15.847,32.964,41.470,781.54,0.0, NaN,14.335,14.301, NaN,24.216,   NaN,12.88,1017.00,77.01,12.68,55.5,54.7,6.4,4.5,352.9,9.6,5.8,4.7,NaN, NaN,NaN,246.5,NaN,1081123821,NaN,NaN,9.2,000620,   NaN,249.1,33.524770,-122.420430,-0.11,NaN,NaN,15.851, NaN,NaN,NaN, NaN, NaN
20040405,001049,1123839,33.524220,-122.422010,NaN,15.844,32.965,41.468,771.82,0.0, NaN,14.321,14.286, NaN,24.218,   NaN,12.82,1017.07,77.04,12.62,55.5,54.4,6.5,4.7,351.7,7.1,5.9,4.8,NaN, NaN,NaN,258.0,NaN,1081123851,NaN,NaN,9.6,000650,   NaN,248.4,33.524200,-122.421910,-0.22,NaN,NaN,15.848, NaN,NaN,NaN, NaN, NaN
20040405,001120,1123870,33.523600,-122.423530,NaN,15.842,32.965,41.465,761.37,0.0, NaN,14.305,14.268, NaN,24.219,   NaN,12.83,1017.08,76.98,12.61,55.0,55.5,6.4,4.7,351.9,7.6,5.8,4.9,NaN, NaN,NaN,245.9,NaN,1081123882,NaN,NaN,9.2,000681,   NaN,247.8,33.523580,-122.423430,-0.15,NaN,NaN,15.846, NaN,NaN,NaN, NaN, NaN
20040405,001149,1123899,33.523050,-122.424960,NaN,15.836,32.966,41.461,761.16,0.0, NaN,14.291,14.254, NaN,24.220,   NaN,12.88,1017.04,77.51,12.62,56.0,55.7,6.2,4.6,354.9,9.5,5.7,4.8,NaN, NaN,NaN,233.7,NaN,1081123911,NaN,NaN,10.0,000710,   NaN,248.1,33.523020,-122.424850,-0.06,NaN,NaN,15.840, NaN,NaN,NaN, NaN, NaN
20040405,001220,1123930,33.522420,-122.426480,NaN,15.836,32.964,41.458,783.25,0.0, NaN,14.279,14.241, NaN,24.219,   NaN,12.93,1017.10,77.64,12.66,56.0,54.9,5.9,4.2,356.4,13.1,5.6,4.6,NaN, NaN,NaN,250.2,NaN,1081123942,NaN,NaN,10.3,000741,   NaN,248.9,33.522400,-122.426380,0.02,NaN,NaN,15.840, NaN,NaN,NaN, NaN, NaN
20040405,001250,1123960,33.521830,-122.427950,NaN,15.830,32.969,41.459,782.57,0.0, NaN,14.268,14.233, NaN,24.224,   NaN,12.94,1017.02,77.48,12.69,54.1,53.2,6.4,4.7,351.3,6.0,5.7,4.7,NaN, NaN,NaN,242.4,NaN,1081123972,NaN,NaN,10.0,000771,   NaN,246.9,33.521810,-122.427850,0.18,NaN,NaN,15.834, NaN,NaN,NaN, NaN, NaN
20040405,001320,1123989,33.521240,-122.429430,NaN,15.829,32.971,41.460,792.73,0.0, NaN,14.257,14.222, NaN,24.226,   NaN,12.86,1017.02,77.00,12.62,53.2,52.6,7.0,5.4,346.6,359.4,6.0,5.0,NaN, NaN,NaN,250.1,NaN,1081124001,NaN,NaN,9.3,000801,   NaN,247.9,33.521240,-122.429280,0.08,NaN,NaN,15.833, NaN,NaN,NaN, NaN, NaN
20040405,001350,1124020,33.520650,-122.430900,NaN,15.824,32.973,41.457,813.94,0.0, NaN,14.249,14.213, NaN,24.229,   NaN,12.86,1017.01,76.86,12.62,55.4,57.7,7.0,5.2,348.3,4.2,6.2,5.3,NaN, NaN,NaN,239.3,NaN,1081124031,NaN,NaN,9.5,000831,   NaN,248.4,33.520650,-122.430750,-0.13,NaN,NaN,15.828, NaN,NaN,NaN, NaN, NaN
20040405,001420,1124050,33.520070,-122.432390,NaN,15.816,32.974,41.451,866.86,0.0, NaN,14.239,14.204, NaN,24.231,   NaN,12.86,1017.05,76.84,12.61,56.3,57.8,6.9,4.9,349.9,7.0,6.2,5.1,NaN, NaN,NaN,248.2,NaN,1081124062,NaN,NaN,9.8,000861,   NaN,249.6,33.520060,-122.432230,0.02,NaN,NaN,15.820, NaN,NaN,NaN, NaN, NaN
20040405,001450,1124080,33.519460,-122.433870,NaN,15.810,32.975,41.447,1321.83,0.0, NaN,14.231,14.196, NaN,24.233,   NaN,12.94,1017.03,77.40,12.66,57.0,58.3,6.6,4.6,352.1,10.8,6.1,5.0,NaN, NaN,NaN,236.4,NaN,1081124092,NaN,NaN,10.4,000891,   NaN,248.6,33.519470,-122.433710,0.04,NaN,NaN,15.814, NaN,NaN,NaN, NaN, NaN
20040405,001520,1124110,33.518890,-122.435330,NaN,15.797,32.976,41.436,1238.71,0.0, NaN,14.225,14.191, NaN,24.237,   NaN,13.00,1017.03,77.23,12.71,57.1,58.7,6.5,4.4,353.4,13.5,6.0,4.9,NaN, NaN,NaN,236.4,NaN,1081124121,NaN,NaN,9.9,000921,   NaN,246.7,33.518900,-122.435180,-0.19,NaN,NaN,15.801, NaN,NaN,NaN, NaN, NaN
20040405,001550,1124140,33.518290,-122.436800,NaN,15.785,32.977,41.426,1692.33,0.0, NaN,14.221,14.185, NaN,24.240,   NaN,12.97,1017.08,76.85,12.69,56.5,58.6,6.3,4.4,354.2,12.6,5.8,5.0,NaN, NaN,NaN,236.7,NaN,1081124152,NaN,NaN,10.5,000951,   NaN,249.1,33.518270,-122.436690,-0.26,NaN,NaN,15.789, NaN,NaN,NaN, NaN, NaN
20040405,001620,1124169,33.517710,-122.438280,NaN,15.773,32.978,41.415,1320.54,0.0, NaN,14.220,14.179, NaN,24.244,   NaN,13.05,1017.11,77.27,12.75,56.0,59.5,6.1,4.5,355.6,12.4,5.6,5.0,NaN, NaN,NaN,235.7,NaN,1081124182,NaN,NaN,9.9,000981,   NaN,247.9,33.517680,-122.438180,-0.04,NaN,NaN,15.777, NaN,NaN,NaN, NaN, NaN
20040405,001650,1124200,33.517120,-122.439760,NaN,15.761,32.978,41.404,851.85,0.0, NaN,14.214,14.178, NaN,24.246,   NaN,13.04,1017.08,77.25,12.76,55.1,60.2,5.8,4.0,357.3,17.3,5.4,4.9,NaN, NaN,NaN,242.4,NaN,1081124212,NaN,NaN,11.0,001011,   NaN,247.6,33.517090,-122.439660,-0.05,NaN,NaN,15.765, NaN,NaN,NaN, NaN, NaN
20040405,001719,1124229,33.516540,-122.441200,NaN,15.752,32.978,41.396,819.96,0.0, NaN,14.212,14.175, NaN,24.249,   NaN,12.96,1017.11,76.75,12.74,55.6,59.1,6.0,4.1,356.0,15.9,5.6,4.9,NaN, NaN,NaN,237.9,NaN,1081124241,NaN,NaN,10.1,001040,   NaN,249.8,33.516530,-122.441100,-0.29,NaN,NaN,15.756, NaN,NaN,NaN, NaN, NaN
20040405,001749,1124258,33.515980,-122.442690,NaN,15.745,32.980,41.391,794.47,0.0, NaN,14.208,14.174, NaN,24.251,   NaN,12.91,1017.09,77.02,12.70,54.8,56.6,6.0,4.3,356.1,13.7,5.5,4.8,NaN, NaN,NaN,233.0,NaN,1081124271,NaN,NaN,10.4,001070,   NaN,249.8,33.515960,-122.442580,-0.04,NaN,NaN,15.749, NaN,NaN,NaN, NaN, NaN
20040405,001819,1124289,33.515420,-122.444170,NaN,15.735,32.980,41.382,768.85,0.0, NaN,14.205,14.172, NaN,24.253,   NaN,12.98,1017.06,77.51,12.72,56.1,57.2,5.9,4.3,357.9,14.6,5.6,4.8,NaN, NaN,NaN,242.6,NaN,1081124301,NaN,NaN,10.0,001100,   NaN,249.4,33.515400,-122.444070,0.12,NaN,NaN,15.739, NaN,NaN,NaN, NaN, NaN
20040405,001850,1124320,33.514820,-122.445720,NaN,15.724,32.980,41.371,753.47,0.0, NaN,14.204,14.169, NaN,24.256,   NaN,12.99,1017.09,77.50,12.75,54.9,58.1,6.1,4.3,355.8,14.9,5.6,4.9,NaN, NaN,NaN,248.8,NaN,1081124332,NaN,NaN,9.6,001131,   NaN,248.8,33.514800,-122.445620,0.03,NaN,NaN,15.728, NaN,NaN,NaN, NaN, NaN
20040405,001920,1124350,33.514260,-122.447230,NaN,15.717,32.980,41.365,751.71,0.0, NaN,14.204,14.169, NaN,24.257,   NaN,12.91,1017.08,77.02,12.71,56.2,58.1,6.3,4.4,355.2,14.3,5.8,4.9,NaN, NaN,NaN,239.4,NaN,1081124362,NaN,NaN,10.7,001161,   NaN,248.9,33.514230,-122.447130,-0.02,NaN,NaN,15.721, NaN,NaN,NaN, NaN, NaN
20040405,001950,1124380,33.513680,-122.448780,NaN,15.710,32.981,41.359,769.53,0.0, NaN,14.202,14.168, NaN,24.260,   NaN,12.91,1017.02,77.23,12.70,53.5,53.4,6.7,4.9,350.6,7.1,5.9,4.8,NaN, NaN,NaN,240.6,NaN,1081124392,NaN,NaN,10.7,001191,   NaN,249.8,33.513650,-122.448680,-0.04,NaN,NaN,15.714, NaN,NaN,NaN, NaN, NaN
20040405,002020,1124410,33.513090,-122.450350,NaN,15.706,32.982,41.357,779.49,0.0, NaN,14.201,14.168, NaN,24.261,   NaN,12.91,1017.05,77.21,12.70,52.3,52.0,7.0,5.2,348.7,3.9,5.9,4.9,NaN, NaN,NaN,250.9,NaN,1081124421,NaN,NaN,10.2,001221,   NaN,249.2,33.513080,-122.450190,-0.15,NaN,NaN,15.710, NaN,NaN,NaN, NaN, NaN
20040405,002050,1124440,33.512500,-122.451920,NaN,15.702,32.982,41.353,786.10,0.0, NaN,14.201,14.168, NaN,24.263,   NaN,12.96,1017.03,77.38,12.72,53.2,52.4,7.2,5.3,349.1,4.5,6.1,5.0,NaN, NaN,NaN,247.7,NaN,1081124452,NaN,NaN,10.9,001251,   NaN,248.9,33.512470,-122.451820,-0.11,NaN,NaN,15.706, NaN,NaN,NaN, NaN, NaN
20040405,002120,1124470,33.511910,-122.453510,NaN,15.697,32.984,41.351,816.45,0.0, NaN,14.200,14.165, NaN,24.265,   NaN,12.98,1017.03,77.53,12.71,53.5,52.5,7.0,5.2,350.8,6.1,6.0,4.9,NaN, NaN,NaN,249.3,NaN,1081124482,NaN,NaN,10.9,001281,   NaN,248.2,33.511890,-122.453410,0.15,NaN,NaN,15.701, NaN,NaN,NaN, NaN, NaN
20040405,002150,1124499,33.511320,-122.455090,NaN,15.693,32.984,41.348,802.47,0.0, NaN,14.197,14.161, NaN,24.266,   NaN,12.98,1017.02,77.41,12.72,54.4,52.7,6.9,5.2,352.2,5.6,6.1,5.0,NaN, NaN,NaN,249.8,NaN,1081124512,NaN,NaN,10.6,001311,   NaN,249.6,33.511300,-122.454990,-0.04,NaN,NaN,15.697, NaN,NaN,NaN, NaN, NaN
20040405,002220,1124530,33.510730,-122.456670,NaN,15.692,32.984,41.346,781.57,0.0, NaN,14.194,14.161, NaN,24.266,   NaN,13.07,1017.02,78.26,12.80,52.2,49.9,7.0,5.5,349.5,0.4,5.9,4.9,NaN, NaN,NaN,252.4,NaN,1081124542,NaN,NaN,10.4,001341,   NaN,249.9,33.510710,-122.456580,0.08,NaN,NaN,15.696, NaN,NaN,NaN, NaN, NaN
20040405,002250,1124560,33.510150,-122.458250,NaN,15.688,32.984,41.342,788.12,0.0, NaN,14.193,14.159, NaN,24.267,   NaN,13.09,1016.99,78.09,12.83,50.0,47.6,7.2,5.8,346.3,356.6,5.9,4.8,NaN, NaN,NaN,237.1,NaN,1081124572,NaN,NaN,10.8,001371,   NaN,250.1,33.510130,-122.458150,0.00,NaN,NaN,15.692, NaN,NaN,NaN, NaN, NaN
20040405,002320,1124590,33.509570,-122.459820,NaN,15.683,32.983,41.337,795.41,0.0, NaN,14.191,14.156, NaN,24.267,   NaN,12.97,1017.01,77.06,12.76,50.4,47.8,7.6,6.2,343.9,353.2,6.1,5.0,NaN, NaN,NaN,250.7,NaN,1081124602,NaN,NaN,10.9,001401,   NaN,248.9,33.509560,-122.459720,0.05,NaN,NaN,15.687, NaN,NaN,NaN, NaN, NaN
20040405,002350,1124620,33.509010,-122.461380,NaN,15.683,32.984,41.337,774.83,0.0, NaN,14.189,14.151, NaN,24.268,   NaN,12.85,1017.05,76.81,12.67,52.6,51.3,7.7,6.1,344.8,356.0,6.4,5.2,NaN, NaN,NaN,253.4,NaN,1081124632,NaN,NaN,10.4,001431,   NaN,248.4,33.508990,-122.461280,-0.08,NaN,NaN,15.687, NaN,NaN,NaN, NaN, NaN
20040405,002420,1124650,33.508440,-122.462950,NaN,15.683,32.984,41.338,770.17,0.0, NaN,14.187,14.151, NaN,24.268,   NaN,12.91,1017.01,77.27,12.70,53.6,52.6,7.5,5.8,346.9,359.5,6.4,5.2,NaN, NaN,NaN,255.5,NaN,1081124662,NaN,NaN,10.3,001461,   NaN,248.9,33.508420,-122.462850,-0.06,NaN,NaN,15.687, NaN,NaN,NaN, NaN, NaN
20040405,002450,1124680,33.507840,-122.464500,NaN,15.679,32.984,41.334,765.50,0.0, NaN,14.185,14.150, NaN,24.269,   NaN,12.88,1017.00,76.76,12.67,52.7,52.7,7.5,5.7,345.8,0.4,6.3,5.1,NaN, NaN,NaN,247.6,NaN,1081124692,NaN,NaN,9.9,001491,   NaN,250.2,33.507830,-122.464400,-0.09,NaN,NaN,15.683, NaN,NaN,NaN, NaN, NaN
20040405,002520,1124710,33.507290,-122.466080,NaN,15.677,32.984,41.333,726.88,0.0, NaN,14.188,14.153, NaN,24.270,   NaN,12.88,1017.03,76.91,12.67,51.7,51.1,7.7,6.0,343.8,356.4,6.3,5.1,NaN, NaN,NaN,249.3,NaN,1081124722,NaN,NaN,10.1,001521,   NaN,248.4,33.507270,-122.465970,0.01,NaN,NaN,15.681, NaN,NaN,NaN, NaN, NaN
20040405,002550,1124740,33.506730,-122.467640,NaN,15.673,32.981,41.325,717.79,0.0, NaN,14.192,14.159, NaN,24.269,   NaN,12.93,1017.02,77.07,12.69,49.7,47.8,7.8,6.2,342.0,352.3,6.2,5.0,NaN, NaN,NaN,248.6,NaN,1081124752,NaN,NaN,9.7,001551,   NaN,248.6,33.506690,-122.467540,0.00,NaN,NaN,15.677, NaN,NaN,NaN, NaN, NaN
20040405,002620,1124770,33.506160,-122.469200,NaN,15.672,32.985,41.329,727.37,0.0, NaN,14.199,14.165, NaN,24.272,   NaN,12.86,1017.07,76.37,12.67,49.6,48.1,7.5,6.0,343.4,354.4,6.0,4.9,NaN, NaN,NaN,253.8,NaN,1081124782,NaN,NaN,9.9,001581,   NaN,250.1,33.506120,-122.469110,-0.24,NaN,NaN,15.676, NaN,NaN,NaN, NaN, NaN
20040405,002650,1124800,33.505590,-122.470840,NaN,15.668,32.986,41.326,750.64,0.0, NaN,14.205,14.172, NaN,24.273,   NaN,12.81,1017.05,76.24,12.62,51.8,49.6,7.1,5.6,348.2,359.9,5.9,4.8,NaN, NaN,NaN,246.7,NaN,1081124812,NaN,NaN,10.6,001612,   NaN,249.7,33.505560,-122.470680,-0.12,NaN,NaN,15.672, NaN,NaN,NaN, NaN, NaN
20040405,002721,1124831,33.505050,-122.472360,NaN,15.666,32.981,41.319,821.08,0.0, NaN,14.212,14.177, NaN,24.270,   NaN,12.94,1017.10,77.05,12.67,53.6,52.1,6.5,5.0,353.9,6.9,5.7,4.8,NaN, NaN,NaN,244.0,NaN,1081124842,NaN,NaN,10.9,001641,   NaN,247.9,33.505010,-122.472260,-0.05,NaN,NaN,15.670, NaN,NaN,NaN, NaN, NaN
20040405,002750,1124860,33.504500,-122.473930,NaN,15.668,32.987,41.327,1347.84,0.0, NaN,14.217,14.179, NaN,24.274,   NaN,12.96,1017.10,76.79,12.70,56.0,55.6,6.2,4.5,358.3,14.4,5.6,4.8,NaN, NaN,NaN,243.5,NaN,1081124872,NaN,NaN,10.3,001671,   NaN,249.5,33.504450,-122.473820,0.07,NaN,NaN,15.672, NaN,NaN,NaN, NaN, NaN
20040405,002820,1124890,33.503900,-122.475490,NaN,15.664,32.985,41.321,1153.25,0.0, NaN,14.218,14.180, NaN,24.273,   NaN,13.08,1017.10,77.53,12.80,56.5,57.1,6.2,4.3,358.4,16.5,5.7,4.9,NaN, NaN,NaN,243.7,NaN,1081124902,NaN,NaN,10.1,001701,   NaN,250.1,33.503860,-122.475380,0.00,NaN,NaN,15.668, NaN,NaN,NaN, NaN, NaN
20040405,002850,1124920,33.503350,-122.477050,NaN,15.659,32.985,41.317,966.74,0.0, NaN,14.218,14.179, NaN,24.275,   NaN,13.14,1017.07,77.79,12.83,56.3,56.3,6.5,4.6,356.1,12.7,5.9,4.9,NaN, NaN,NaN,241.9,NaN,1081124932,NaN,NaN,10.6,001731,   NaN,249.9,33.503300,-122.476940,0.00,NaN,NaN,15.663, NaN,NaN,NaN, NaN, NaN
20040405,002921,1124951,33.502780,-122.478610,NaN,15.662,32.986,41.320,920.66,0.0, NaN,14.218,14.180, NaN,24.274,   NaN,13.13,1017.08,77.78,12.84,52.0,49.4,6.9,5.3,349.7,2.2,5.8,4.7,NaN, NaN,NaN,236.9,NaN,1081124962,NaN,NaN,11.0,001761,   NaN,249.6,33.502730,-122.478510,-0.09,NaN,NaN,15.666, NaN,NaN,NaN, NaN, NaN
20040405,002950,1124980,33.502210,-122.480180,NaN,15.662,32.985,41.320,914.41,0.0, NaN,14.220,14.185, NaN,24.274,   NaN,13.06,1017.08,77.22,12.83,45.4,40.6,7.3,6.4,340.8,344.4,5.5,4.5,NaN, NaN,NaN,246.4,NaN,1081124992,NaN,NaN,9.9,001791,   NaN,248.9,33.502170,-122.480070,0.01,NaN,NaN,15.666, NaN,NaN,NaN, NaN, NaN
20040405,003020,1125009,33.501660,-122.481750,NaN,15.662,32.986,41.320,1049.19,0.0, NaN,14.223,14.192, NaN,24.274,   NaN,12.95,1017.07,76.46,12.79,41.8,35.4,7.7,7.3,334.3,330.6,5.4,4.6,NaN, NaN,NaN,247.3,NaN,1081125022,NaN,NaN,10.4,001821,   NaN,248.6,33.501620,-122.481650,0.10,NaN,NaN,15.666, NaN,NaN,NaN, NaN, NaN
20040405,003050,1125040,33.501080,-122.483320,NaN,15.666,32.986,41.324,1802.77,0.0, NaN,14.233,14.201, NaN,24.273,   NaN,12.94,1017.04,76.47,12.77,40.3,33.0,8.0,7.9,330.9,322.6,5.5,4.8,NaN, NaN,NaN,255.3,NaN,1081125052,NaN,NaN,9.9,001851,   NaN,250.1,33.501040,-122.483210,-0.14,NaN,NaN,15.670, NaN,NaN,NaN, NaN, NaN
20040405,003120,1125070,33.500520,-122.484880,NaN,15.671,32.986,41.329,2079.73,0.0, NaN,14.244,14.213, NaN,24.273,   NaN,13.02,1017.06,76.52,12.77,41.8,34.1,8.1,7.7,331.5,325.1,5.7,4.7,NaN, NaN,NaN,244.9,NaN,1081125082,NaN,NaN,10.1,001881,   NaN,248.8,33.500480,-122.484770,-0.06,NaN,NaN,15.675, NaN,NaN,NaN, NaN, NaN
20040405,003150,1125100,33.499970,-122.486430,NaN,15.673,32.985,41.330,1316.63,0.0, NaN,14.257,14.229, NaN,24.271,   NaN,13.09,1017.06,76.86,12.79,44.5,35.9,8.0,7.2,335.0,331.4,5.9,4.5,NaN, NaN,NaN,248.9,NaN,1081125112,NaN,NaN,9.2,001911,   NaN,248.6,33.499930,-122.486320,-0.08,NaN,NaN,15.677, NaN,NaN,NaN, NaN, NaN
20040405,003220,1125130,33.499410,-122.487970,NaN,15.680,32.984,41.335,1199.71,0.0, NaN,14.275,14.244, NaN,24.269,   NaN,13.08,1017.08,76.69,12.81,45.0,36.6,7.9,7.1,335.6,333.2,5.8,4.5,NaN, NaN,NaN,252.9,NaN,1081125142,NaN,NaN,9.7,001941,   NaN,250.6,33.499360,-122.487860,0.06,NaN,NaN,15.684, NaN,NaN,NaN, NaN, NaN
20040405,003250,1125160,33.498850,-122.489520,NaN,15.678,32.984,41.333,1470.70,0.0, NaN,14.287,14.255, NaN,24.269,   NaN,13.02,1017.07,76.34,12.79,44.7,37.1,8.1,7.2,334.1,332.1,5.9,4.6,NaN, NaN,NaN,241.0,NaN,1081125172,NaN,NaN,10.3,001971,   NaN,249.2,33.498810,-122.489410,-0.03,NaN,NaN,15.682, NaN,NaN,NaN, NaN, NaN
20040405,003320,1125190,33.498290,-122.491060,NaN,15.677,32.981,41.329,1550.66,0.0, NaN,14.293,14.261, NaN,24.267,   NaN,13.07,1017.11,76.73,12.80,44.7,38.4,7.8,7.0,336.0,335.9,5.8,4.6,NaN, NaN,NaN,254.6,NaN,1081125202,NaN,NaN,9.6,002001,   NaN,250.4,33.498250,-122.490950,-0.06,NaN,NaN,15.681, NaN,NaN,NaN, NaN, NaN
20040405,003350,1125220,33.497740,-122.492590,NaN,15.675,32.982,41.329,987.07,0.0, NaN,14.300,14.269, NaN,24.269,   NaN,13.04,1017.10,76.41,12.79,44.1,37.8,7.7,6.9,335.4,335.3,5.7,4.5,NaN, NaN,NaN,254.2,NaN,1081125232,NaN,NaN,9.1,002031,   NaN,248.9,33.497700,-122.492480,0.19,NaN,NaN,15.679, NaN,NaN,NaN, NaN, NaN
20040405,003420,1125250,33.497180,-122.494140,NaN,15.681,32.982,41.334,971.31,0.0, NaN,14.312,14.282, NaN,24.267,   NaN,13.02,1017.08,76.54,12.79,43.5,35.9,8.2,7.7,331.7,326.8,6.0,4.9,NaN, NaN,NaN,245.0,NaN,1081125262,NaN,NaN,9.6,002061,   NaN,248.2,33.497140,-122.494030,0.24,NaN,NaN,15.685, NaN,NaN,NaN, NaN, NaN
20040405,003450,1125280,33.496610,-122.495680,NaN,15.684,32.982,41.336,769.87,0.0, NaN,14.327,14.297, NaN,24.266,   NaN,12.95,1017.07,76.06,12.78,42.6,35.5,8.6,8.1,329.1,323.5,6.2,5.2,NaN, NaN,NaN,249.2,NaN,1081125292,NaN,NaN,10.3,002091,   NaN,248.4,33.496560,-122.495570,0.15,NaN,NaN,15.688, NaN,NaN,NaN, NaN, NaN
20040405,003520,1125310,33.496020,-122.497220,NaN,15.689,32.982,41.341,660.94,0.0, NaN,14.345,14.318, NaN,24.265,   NaN,12.95,1017.12,76.43,12.77,42.1,35.2,8.6,8.2,328.2,322.3,6.1,5.2,NaN, NaN,NaN,245.5,NaN,1081125322,NaN,NaN,9.7,002121,   NaN,249.8,33.495980,-122.497110,0.02,NaN,NaN,15.693, NaN,NaN,NaN, NaN, NaN
20040405,003550,1125339,33.495440,-122.498780,NaN,15.697,32.982,41.349,607.32,0.0, NaN,14.357,14.330, NaN,24.263,   NaN,12.91,1017.09,76.28,12.76,44.0,36.3,8.3,7.8,331.8,327.7,6.1,5.0,NaN, NaN,NaN,244.8,NaN,1081125352,NaN,NaN,10.0,002151,   NaN,248.4,33.495390,-122.498670,0.12,NaN,NaN,15.701, NaN,NaN,NaN, NaN, NaN
20040405,003620,1125370,33.494830,-122.500340,NaN,15.706,32.983,41.357,577.31,0.0, NaN,14.357,14.327, NaN,24.262,   NaN,12.95,1017.14,76.59,12.77,42.2,35.5,8.1,7.6,332.2,328.9,5.8,4.9,NaN, NaN,NaN,241.3,NaN,1081125382,NaN,NaN,10.4,002181,   NaN,250.1,33.494780,-122.500230,-0.20,NaN,NaN,15.710, NaN,NaN,NaN, NaN, NaN
20040405,003650,1125400,33.494230,-122.501920,NaN,15.715,32.984,41.368,559.37,0.0, NaN,14.325,14.288, NaN,24.261,   NaN,12.82,1017.19,75.66,12.69,39.7,33.5,8.0,7.9,330.7,324.3,5.5,5.0,NaN, NaN,NaN,250.6,NaN,1081125412,NaN,NaN,10.3,002211,   NaN,250.1,33.494190,-122.501810,-0.20,NaN,NaN,15.719, NaN,NaN,NaN, NaN, NaN
20040405,003720,1125430,33.493640,-122.503480,NaN,15.723,32.985,41.376,550.62,0.0, NaN,14.262,14.221, NaN,24.260,   NaN,12.77,1017.21,75.62,12.60,38.8,31.4,7.8,8.2,331.7,320.3,5.3,4.9,NaN, NaN,NaN,245.7,NaN,1081125442,NaN,NaN,10.9,002241,   NaN,248.1,33.493590,-122.503380,-0.05,NaN,NaN,15.727, NaN,NaN,NaN, NaN, NaN